[[{"header":{"parameterUnit":"m.s-1","parameterCategory":1,"la1":30.2991,"la2":30.254,"lo1":-89.0895,"lo2":-89.0444,"dy":0.0017,"dx":0.0017,"nx":28,"ny":28,"refTime":"2024-03-14T03:00:00:Z","depth":0,"parameterNumber":2,"parameterNumberName":"U-component_of_WINDS"},"data":[0,0,0,0,0,0,0,0,0,0,0,0,0,0,0,0,0,0,0,0,0,0,0,0,0,0,0,0,0,0,0,0,0,0,0,0,0,0,0,0,0,0,0,0,0,0,0,0,0,0,0,0,0,0,0,0,0,0,-2.479,-2.479,0,-2.4836,-2.4836,-2.4837,-2.4822,-2.4821,-2.482,-2.4819,-2.4866,-2.4868,-2.487,0,0,0,0,0,0,0,0,0,0,0,0,0,-2.469,-2.4692,-2.479,-2.479,-2.4791,-2.4836,-2.4836,-2.4837,-2.4822,-2.4821,-2.482,-2.4819,-2.4865,-2.4868,-2.487,0,0,0,0,0,0,0,0,0,0,0,0,0,-2.4734,-2.4692,-2.479,-2.4789,-2.479,-2.4835,-2.4836,-2.4837,-2.4823,-2.4821,-2.482,-2.4818,-2.4864,-2.4868,-2.4871,-2.492,0,0,-2.4881,-2.4882,0,0,0,0,0,0,0,0,-2.4732,-2.4738,-2.4789,-2.4789,-2.479,-2.4822,-2.4818,-2.4865,-2.4823,-2.481,-2.4819,-2.4818,-2.4852,-2.4857,-2.4868,-2.4922,-2.4924,-2.4881,-2.4883,-2.4884,-2.4885,0,0,0,0,0,0,0,-2.4729,-2.4736,-2.4808,-2.4789,-2.479,-2.4787,-2.4791,-2.4827,-2.4839,-2.4811,-2.481,-2.4816,-2.4852,-2.4865,-2.4869,-2.4925,-2.4881,-2.4884,-2.4886,-2.4887,-2.502,-2.5022,0,0,0,0,0,0,-2.4725,-2.4733,-2.4807,-2.4809,-2.4757,-2.479,-2.4795,-2.4813,-2.4838,-2.4841,-2.4817,-2.4815,-2.486,-2.4866,-2.4871,-2.4929,-2.4884,-2.4887,-2.4889,-2.5019,-2.5021,-2.5023,0,0,0,0,0,0,-2.4723,-2.4732,-2.4805,-2.4771,-2.478,-2.4793,-2.4813,-2.4815,-2.4827,-2.4843,-2.4845,-2.4828,-2.4859,-2.4866,-2.4908,-2.4931,-2.4889,-2.4892,-2.5017,-2.502,-2.5022,-2.5047,0,0,0,0,0,0,-2.472,-2.4731,-2.475,-2.4772,-2.4782,-2.4841,-2.4815,-2.4817,-2.4833,-2.4831,-2.4854,-2.4856,-2.4859,-2.4903,-2.4911,-2.4934,-2.4894,-2.5015,-2.5018,-2.5021,-2.5044,-2.505,-2.5055,0,0,0,0,0,-2.4717,-2.4755,-2.4751,-2.476,-2.4806,-2.4842,-2.4848,-2.4851,-2.4835,-2.4854,-2.4864,-2.4855,-2.4927,-2.4907,-2.4916,-2.4941,-2.5013,-2.5017,-2.5021,-2.5041,-2.5049,-2.5055,0,0,0,0,0,0,-2.4736,-2.4758,-2.4754,-2.48,-2.4819,-2.484,-2.4863,-2.4858,-2.4882,-2.4879,-2.4881,-2.4886,-2.4929,-2.4939,-2.4917,-2.499,-2.4968,-2.4974,-2.4981,-2.4988,-2.4993,-2.4989,-2.4897,0,0,0,0,0,-2.4745,-2.4773,-2.4791,-2.4831,-2.4841,-2.4851,-2.4866,-2.4867,-2.4887,-2.4895,-2.4908,-2.4927,-2.4954,-2.4972,-2.4998,-2.5046,-2.505,-2.5067,-2.5073,-2.5077,-2.5081,-2.5107,-2.5114,-2.5035,-2.5035,-2.5034,0,0,-2.4765,-2.4781,-2.4798,-2.4835,-2.485,-2.4878,-2.4857,-2.4888,-2.4909,-2.4899,-2.4939,-2.4949,-2.4971,-2.5016,-2.5037,-2.5026,-2.5105,-2.5082,-2.5085,-2.5087,-2.5111,-2.5119,-2.5126,-2.5037,-2.5037,-2.5036,0,0,-2.4816,-2.4831,-2.4865,-2.4881,-2.4904,-2.491,-2.4918,-2.494,-2.4946,-2.4986,-2.4979,-2.5004,-2.5051,-2.5066,-2.508,-2.5138,-2.513,-2.5146,-2.5174,-2.5199,-2.5205,-2.5211,-2.523,-2.5237,-2.5151,-2.5151,-2.5151,0,-2.4838,-2.488,-2.4884,-2.4915,-2.4931,-2.4924,-2.4958,-2.4973,-2.5003,-2.5014,-2.5003,-2.5061,-2.5075,-2.5123,-2.5137,-2.5149,-2.5158,-2.5143,-2.5204,-2.521,-2.5215,-2.5233,-2.5241,-2.5153,-2.5153,-2.5152,-2.5152,0,-2.4906,-2.4935,-2.496,-2.4989,-2.5008,-2.5041,-2.5049,-2.5068,-2.5067,-2.5075,-2.5115,-2.5133,-2.5161,-2.5173,-2.5173,-2.5221,-2.5214,-2.5203,-2.5181,-2.5224,-2.5241,-2.5248,-2.5155,-2.5154,-2.5154,-2.5154,0,0,-2.4968,-2.4999,-2.5008,-2.5021,-2.5046,-2.5069,-2.5101,-2.513,-2.5145,-2.5167,-2.5193,-2.5234,-2.5224,-2.524,-2.5241,-2.5264,-2.5306,-2.525,-2.5251,-2.5259,-2.536,-2.5366,-2.5374,-2.5303,-2.5304,-2.5305,-2.5357,0,-2.502,-2.5076,-2.508,-2.5132,-2.5159,-2.5153,-2.5181,-2.52,-2.5208,-2.5232,-2.5242,-2.5269,-2.5255,-2.5264,-2.5286,-2.5297,-2.5326,-2.5293,-2.5327,-2.5328,-2.5319,-2.5383,-2.539,-2.5439,-2.5364,-2.5365,-2.5366,0,-2.5087,-2.511,-2.5164,-2.5185,-2.5197,-2.5222,-2.5248,-2.5271,-2.5292,-2.5297,-2.5315,-2.5314,-2.5347,-2.5325,-2.5371,-2.5348,-2.5362,-2.5369,-2.5371,-2.5373,-2.5348,-2.5385,-2.5454,-2.5461,-2.5377,-2.5376,-2.5375,0,-2.5125,-2.517,-2.5208,-2.522,-2.5245,-2.5263,-2.5275,-2.5294,-2.5311,-2.5334,-2.5345,-2.5371,-2.5386,-2.5406,-2.5412,-2.5396,-2.5457,-2.5436,-2.5461,-2.5461,-2.5472,-2.5471,-2.5543,-2.5485,-2.5485,-2.5485,-2.5484,0,-2.5181,-2.5214,-2.5225,-2.5248,-2.5285,-2.529,-2.5326,-2.5337,-2.5354,-2.5379,-2.5376,-2.54,-2.5407,-2.5431,-2.5436,-2.5472,-2.5479,-2.5483,-2.5484,-2.5483,-2.5482,-2.5491,-2.5487,-2.5486,-2.5486,-2.5486,-2.5485,0,-2.5229,-2.5238,-2.5279,-2.53,-2.5306,-2.5332,-2.535,-2.5373,-2.5381,-2.5413,-2.542,-2.5433,-2.5462,-2.5471,-2.5505,-2.5509,-2.5551,-2.5549,-2.5544,-2.5543,-2.5567,-2.5564,-2.5645,-2.5655,-2.5592,-2.5593,-2.5593,0,-2.5263,-2.5288,-2.5312,-2.5329,-2.5341,-2.5368,-2.5385,-2.5391,-2.5409,-2.5435,-2.5453,-2.5482,-2.5505,-2.5552,-2.5564,-2.5591,-2.5589,-2.5616,-2.5593,-2.559,-2.5587,-2.5585,-2.5587,-2.5619,-2.562,-2.562,-2.5621,0,-2.5323,-2.5326,-2.535,-2.5377,-2.5397,-2.5418,-2.5438,-2.5452,-2.5461,-2.5481,-2.5511,-2.5528,-2.5564,-2.5592,-2.5619,-2.5631,-2.5627,-2.5628,-2.5635,-2.5633,-2.5628,-2.5629,-2.5553,-2.5626,-2.5625,-2.5625,-2.5625,-2.5624,-2.5364,-2.5385,-2.5405,-2.5433,-2.5449,-2.5468,-2.5489,-2.5501,-2.5525,-2.5555,-2.5557,-2.5589,-2.5609,-2.5645,-2.5659,-2.5683,-2.5675,-2.5686,-2.5688,-2.569,-2.5691,-2.5626,-2.5689,-2.5688,-2.5688,-2.5688,-2.5688,0,-2.5421,-2.5434,-2.5459,-2.5488,-2.5509,-2.5505,-2.5527,-2.5545,-2.5573,-2.5592,-2.5615,-2.5649,-2.5676,-2.5691,-2.5719,-2.5736,-2.5734,-2.5742,-2.574,-2.5743,-2.5697,-2.5688,-2.5743,-2.5743,-2.5743,-2.5743,-2.5743,-2.5743,-2.5454,-2.549,-2.5496,-2.554,-2.5552,-2.5583,-2.5596,-2.5614,-2.5629,-2.5667,-2.569,-2.5699,-2.5717,-2.5746,-2.5771,-2.5774,-2.5784,-2.5792,-2.5795,-2.5752,-2.5746,-2.5741,-2.5732,-2.5795,-2.5795,-2.5838,-2.5839,-2.5839]},{"header":{"parameterUnit":"m.s-1","parameterCategory":1,"la1":30.2991,"la2":30.254,"lo1":-89.0895,"lo2":-89.0444,"dy":0.0017,"dx":0.0017,"nx":28,"ny":28,"refTime":"2024-03-14T03:00:00:Z","depth":0,"parameterNumber":3,"parameterNumberName":"V-component_of_WINDS"},"data":[0,0,0,0,0,0,0,0,0,0,0,0,0,0,0,0,0,0,0,0,0,0,0,0,0,0,0,0,0,0,0,0,0,0,0,0,0,0,0,0,0,0,0,0,0,0,0,0,0,0,0,0,0,0,0,0,0,0,2.282,2.2821,0,2.2845,2.2845,2.2845,2.2837,2.2837,2.2836,2.2836,2.2861,2.2862,2.2863,0,0,0,0,0,0,0,0,0,0,0,0,0,2.2769,2.277,2.282,2.2821,2.2821,2.2845,2.2845,2.2845,2.2838,2.2837,2.2836,2.2836,2.286,2.2862,2.2863,0,0,0,0,0,0,0,0,0,0,0,0,0,2.2792,2.2771,2.282,2.282,2.282,2.2844,2.2845,2.2845,2.2838,2.2837,2.2836,2.2835,2.286,2.2861,2.2863,2.2889,0,0,2.2868,2.2869,0,0,0,0,0,0,0,0,2.2791,2.2794,2.282,2.282,2.282,2.2837,2.2836,2.286,2.2838,2.2831,2.2836,2.2835,2.2853,2.2856,2.2862,2.289,2.2891,2.2868,2.287,2.287,2.2871,0,0,0,0,0,0,0,2.2789,2.2793,2.283,2.282,2.2821,2.2819,2.2822,2.284,2.2846,2.2832,2.2831,2.2834,2.2853,2.286,2.2862,2.2892,2.2868,2.287,2.2871,2.2872,2.2946,2.2947,0,0,0,0,0,0,2.2788,2.2792,2.2829,2.2831,2.2803,2.2821,2.2823,2.2833,2.2846,2.2847,2.2835,2.2834,2.2858,2.286,2.2863,2.2897,2.287,2.2872,2.2873,2.2945,2.2946,2.2947,0,0,0,0,0,0,2.2786,2.2791,2.2828,2.2811,2.2816,2.2823,2.2833,2.2833,2.284,2.2848,2.2849,2.284,2.2857,2.2861,2.2884,2.2897,2.2873,2.2874,2.2944,2.2945,2.2947,2.2963,0,0,0,0,0,0,2.2785,2.2791,2.28,2.2811,2.2817,2.2848,2.2834,2.2834,2.2843,2.2842,2.2854,2.2855,2.2857,2.2881,2.2885,2.2899,2.2875,2.2943,2.2945,2.2946,2.2961,2.2965,2.2968,0,0,0,0,0,2.2783,2.2803,2.28,2.2805,2.2829,2.2848,2.2851,2.2853,2.2844,2.2854,2.286,2.2855,2.2895,2.2883,2.2888,2.2903,2.2942,2.2944,2.2946,2.296,2.2964,2.2968,0,0,0,0,0,0,2.2792,2.2804,2.2802,2.2825,2.2836,2.2847,2.2859,2.2857,2.287,2.2868,2.2869,2.2872,2.2896,2.2901,2.2888,2.293,2.2917,2.2921,2.2926,2.293,2.2933,2.2932,2.2877,0,0,0,0,0,2.2797,2.2812,2.2821,2.2841,2.2847,2.2853,2.2861,2.2861,2.2872,2.2877,2.2884,2.2895,2.2911,2.292,2.2935,2.2962,2.2966,2.2975,2.2978,2.298,2.2984,2.3001,2.3006,2.2954,2.2954,2.2954,0,0,2.2807,2.2815,2.2824,2.2844,2.2852,2.2868,2.2856,2.2873,2.2886,2.2879,2.2902,2.2908,2.292,2.2946,2.2958,2.2951,2.2999,2.2983,2.2985,2.2987,2.3004,2.3009,2.3013,2.2956,2.2956,2.2955,0,0,2.2833,2.284,2.2859,2.2868,2.2881,2.2885,2.289,2.2902,2.2906,2.2928,2.2925,2.294,2.2966,2.2976,2.2984,2.3018,2.3014,2.3022,2.304,2.3057,2.3061,2.3064,2.3079,2.3083,2.3025,2.3025,2.3025,0,2.2844,2.2868,2.2869,2.2887,2.2897,2.2893,2.2913,2.2921,2.2938,2.2946,2.2938,2.2973,2.298,2.301,2.3019,2.3025,2.3031,2.3021,2.306,2.3064,2.3067,2.3081,2.3086,2.3026,2.3026,2.3026,2.3026,0,2.2882,2.2898,2.2912,2.293,2.2941,2.296,2.2965,2.2976,2.2976,2.2981,2.3006,2.3016,2.3033,2.304,2.3039,2.307,2.3066,2.3059,2.3047,2.3073,2.3086,2.3091,2.3027,2.3027,2.3027,2.3026,0,0,2.2913,2.2933,2.2939,2.2948,2.2963,2.2976,2.2996,2.3014,2.3025,2.3037,2.3055,2.3078,2.3073,2.3082,2.3083,2.3098,2.3127,2.3089,2.309,2.3098,2.3164,2.3171,2.3176,2.3124,2.3125,2.3126,2.3164,0,2.2943,2.2978,2.2981,2.3012,2.3029,2.3027,2.3044,2.3056,2.3062,2.3078,2.3084,2.3102,2.3092,2.3098,2.3113,2.312,2.314,2.3117,2.3142,2.3143,2.3141,2.3183,2.3189,2.3224,2.3169,2.3169,2.317,0,2.2982,2.2997,2.303,2.3046,2.3053,2.3068,2.3087,2.3101,2.3116,2.3119,2.3131,2.3131,2.3153,2.3138,2.317,2.3154,2.3165,2.317,2.3172,2.3175,2.3159,2.3189,2.3235,2.3241,2.3178,2.3177,2.3176,0,2.3004,2.3033,2.3057,2.3065,2.3083,2.3094,2.3102,2.3116,2.3127,2.3143,2.3151,2.3169,2.3179,2.3194,2.3199,2.3188,2.3231,2.3216,2.3236,2.3236,2.3245,2.3245,2.3295,2.325,2.3249,2.3249,2.3249,0,2.3038,2.3059,2.3068,2.3083,2.3108,2.3111,2.3136,2.3143,2.3156,2.3173,2.3172,2.3188,2.3193,2.3212,2.3216,2.3242,2.3246,2.3251,2.3252,2.3252,2.3252,2.326,2.3258,2.3251,2.325,2.325,2.325,0,2.3067,2.3074,2.3101,2.3116,2.3121,2.3139,2.3152,2.3168,2.3174,2.3197,2.3202,2.3212,2.3233,2.324,2.3265,2.3268,2.33,2.3298,2.3296,2.3296,2.3316,2.3315,2.3374,2.3383,2.333,2.3331,2.3331,0,2.3089,2.3105,2.3123,2.3135,2.3144,2.3163,2.3175,2.318,2.3193,2.3212,2.3226,2.3247,2.3265,2.3299,2.3309,2.3329,2.3329,2.3349,2.3332,2.3333,2.3332,2.3332,2.3335,2.3352,2.3353,2.3353,2.3353,0,2.3127,2.313,2.3148,2.3168,2.3183,2.3198,2.3213,2.3223,2.323,2.3245,2.3268,2.3281,2.3309,2.3331,2.3352,2.3361,2.3359,2.3359,2.3365,2.3365,2.3364,2.3368,2.3306,2.3357,2.3357,2.3357,2.3356,2.3356,2.3155,2.317,2.3186,2.3207,2.3219,2.3234,2.325,2.3259,2.3278,2.3301,2.3302,2.3327,2.3344,2.3372,2.3382,2.3403,2.3397,2.3405,2.3407,2.341,2.3412,2.336,2.3406,2.3406,2.3406,2.3406,2.3406,0,2.3195,2.3205,2.3224,2.3246,2.3263,2.326,2.3277,2.3292,2.3314,2.3329,2.3347,2.3374,2.3396,2.3409,2.3431,2.3445,2.3445,2.3451,2.3451,2.3454,2.3415,2.3409,2.3451,2.3451,2.3451,2.3451,2.3451,2.3451,2.3218,2.3245,2.3251,2.3285,2.3295,2.332,2.333,2.3345,2.3357,2.3388,2.3407,2.3415,2.343,2.3454,2.3474,2.3478,2.3487,2.3494,2.3497,2.346,2.3456,2.3451,2.3446,2.3495,2.3495,2.3534,2.3534,2.3535]}]]